When you browse on this site, cookies collect data to enhance your experience and personalize the content and advertising you see.
Visit our Privacy Policy to learn more. By continuing to use the site, you agree to this use of cookies and data.
  • en Suisse
  • Liste des pays
  • À 7 jours
  • Température de l'eau
  • Carte satellitaire
  • Carte météo
  • Widgets météo
  • user-avatar
    Se connecter

    Météo par heure à Yantai

    Ce jour, 26 Mai, Dimanche

    Heure Température Précipitation Vent Pression Humidité
    00:00 +21°C° 0 mm 6 m/s 754 mmHg 85%
    01:00 +21°C° 0 mm 6 m/s 754 mmHg 86%
    02:00 +21°C° 0 mm 5 m/s 754 mmHg 86%
    03:00 +20°C° 0 mm 5 m/s 754 mmHg 87%
    04:00 +20°C° 0 mm 6 m/s 754 mmHg 87%
    05:00 +20°C° 0 mm 6 m/s 754 mmHg 87%
    06:00 +21°C° 0 mm 6 m/s 754 mmHg 84%
    07:00 +22°C° 0 mm 6 m/s 754 mmHg 81%
    08:00 +23°C° 0 mm 5 m/s 754 mmHg 75%
    09:00 +24°C° 0 mm 6 m/s 753 mmHg 74%
    10:00 +24°C° 0 mm 7 m/s 753 mmHg 72%
    11:00 +26°C° 0 mm 8 m/s 753 mmHg 70%
    12:00 +24°C° 0 mm 9 m/s 753 mmHg 72%
    13:00 +23°C° 0 mm 9 m/s 752 mmHg 75%
    14:00 +24°C° 0 mm 7 m/s 752 mmHg 70%
    15:00 +23°C° 0 mm 8 m/s 751 mmHg 74%
    16:00 +22°C° 0 mm 9 m/s 751 mmHg 77%
    17:00 +21°C° 0 mm 9 m/s 751 mmHg 81%
    18:00 +21°C° 0 mm 9 m/s 751 mmHg 81%
    19:00 +19°C° 0 mm 10 m/s 751 mmHg 81%
    20:00 +20°C° 0 mm 7 m/s 751 mmHg 81%
    21:00 +20°C° 0.1 mm 7 m/s 750 mmHg 82%
    22:00 +20°C° 0.1 mm 7 m/s 750 mmHg 83%
    23:00 +20°C° 0.1 mm 7 m/s 750 mmHg 85%

    Demain, 27 Mai, Lundi

    Heure Température Précipitation Vent Pression Humidité
    00:00 +20°C° 0 mm 5 m/s 750 mmHg 86%
    01:00 +20°C° 0 mm 4 m/s 750 mmHg 87%
    02:00 +20°C° 0 mm 2 m/s 750 mmHg 88%
    03:00 +19°C° 0.1 mm 4 m/s 750 mmHg 88%
    04:00 +17°C° 0.1 mm 7 m/s 751 mmHg 88%
    05:00 +16°C° 0.1 mm 9 m/s 751 mmHg 88%
    06:00 +16°C° 0 mm 10 m/s 751 mmHg 83%
    07:00 +16°C° 0 mm 11 m/s 752 mmHg 79%
    08:00 +14°C° 0 mm 12 m/s 753 mmHg 74%
    09:00 +15°C° 0 mm 12 m/s 753 mmHg 68%
    10:00 +17°C° 0 mm 13 m/s 754 mmHg 61%
    11:00 +18°C° 0 mm 13 m/s 755 mmHg 54%
    12:00 +19°C° 0 mm 12 m/s 755 mmHg 50%
    13:00 +21°C° 0 mm 11 m/s 755 mmHg 46%
    14:00 +21°C° 0 mm 10 m/s 756 mmHg 41%
    15:00 +21°C° 0 mm 10 m/s 756 mmHg 40%
    16:00 +22°C° 0 mm 9 m/s 756 mmHg 38%
    17:00 +22°C° 0 mm 8 m/s 756 mmHg 36%
    18:00 +21°C° 0 mm 7 m/s 757 mmHg 41%
    19:00 +18°C° 0 mm 7 m/s 757 mmHg 45%
    20:00 +17°C° 0 mm 6 m/s 757 mmHg 50%
    21:00 +17°C° 0 mm 5 m/s 758 mmHg 53%
    22:00 +16°C° 0 mm 5 m/s 758 mmHg 56%
    23:00 +17°C° 0 mm 4 m/s 759 mmHg 60%

    Après-demain, 28 Mai, Mardi

    Heure Température Précipitation Vent Pression Humidité
    00:00 +17°C° 0 mm 4 m/s 759 mmHg 59%
    01:00 +16°C° 0 mm 3 m/s 759 mmHg 58%
    02:00 +16°C° 0 mm 3 m/s 759 mmHg 58%
    03:00 +16°C° 0 mm 3 m/s 759 mmHg 55%
    04:00 +16°C° 0 mm 3 m/s 759 mmHg 53%
    05:00 +16°C° 0 mm 3 m/s 759 mmHg 50%
    06:00 +18°C° 0 mm 3 m/s 759 mmHg 43%
    07:00 +21°C° 0 mm 3 m/s 759 mmHg 35%
    08:00 +24°C° 0 mm 3 m/s 759 mmHg 28%
    09:00 +26°C° 0 mm 5 m/s 759 mmHg 25%
    10:00 +28°C° 0 mm 6 m/s 759 mmHg 22%
    11:00 +29°C° 0 mm 7 m/s 758 mmHg 19%
    12:00 +30°C° 0 mm 7 m/s 758 mmHg 18%
    13:00 +31°C° 0 mm 8 m/s 758 mmHg 17%
    14:00 +31°C° 0 mm 8 m/s 757 mmHg 16%
    15:00 +30°C° 0 mm 7 m/s 757 mmHg 16%
    16:00 +30°C° 0 mm 7 m/s 756 mmHg 16%
    17:00 +29°C° 0 mm 6 m/s 756 mmHg 16%
    18:00 +28°C° 0 mm 5 m/s 756 mmHg 18%
    19:00 +26°C° 0 mm 4 m/s 756 mmHg 19%
    20:00 +24°C° 0 mm 3 m/s 756 mmHg 21%
    21:00 +24°C° 0 mm 3 m/s 756 mmHg 23%
    22:00 +22°C° 0 mm 4 m/s 756 mmHg 24%
    23:00 +21°C° 0 mm 4 m/s 757 mmHg 26%

    29 Mai, Mercredi

    Heure Température Précipitation Vent Pression Humidité
    00:00 +21°C° 0 mm 4 m/s 756 mmHg 29%
    01:00 +21°C° 0 mm 3 m/s 756 mmHg 32%
    02:00 +20°C° 0 mm 3 m/s 756 mmHg 34%
    03:00 +20°C° 0 mm 2 m/s 756 mmHg 35%
    04:00 +20°C° 0 mm 1 m/s 756 mmHg 35%
    05:00 +20°C° 0 mm 1 m/s 756 mmHg 36%
    06:00 +21°C° 0 mm 2 m/s 756 mmHg 32%
    07:00 +25°C° 0 mm 3 m/s 756 mmHg 28%
    08:00 +28°C° 0 mm 3 m/s 756 mmHg 24%
    09:00 +29°C° 0 mm 4 m/s 756 mmHg 22%
    10:00 +32°C° 0 mm 4 m/s 756 mmHg 19%
    11:00 +34°C° 0 mm 4 m/s 756 mmHg 17%
    12:00 +35°C° 0 mm 4 m/s 755 mmHg 16%
    13:00 +36°C° 0 mm 4 m/s 754 mmHg 15%
    14:00 +36°C° 0 mm 3 m/s 754 mmHg 14%
    15:00 +36°C° 0 mm 3 m/s 753 mmHg 15%
    16:00 +35°C° 0 mm 3 m/s 753 mmHg 16%
    17:00 +35°C° 0 mm 4 m/s 753 mmHg 18%
    18:00 +33°C° 0 mm 5 m/s 753 mmHg 20%
    19:00 +29°C° 0 mm 5 m/s 753 mmHg 23%
    20:00 +27°C° 0 mm 6 m/s 753 mmHg 26%
    21:00 +27°C° 0 mm 7 m/s 753 mmHg 28%
    22:00 +26°C° 0 mm 7 m/s 753 mmHg 30%
    23:00 +24°C° 0 mm 8 m/s 753 mmHg 32%

    30 Mai, Jeudi

    Heure Température Précipitation Vent Pression Humidité
    00:00 +24°C° 0 mm 8 m/s 753 mmHg 34%
    01:00 +23°C° 0 mm 7 m/s 753 mmHg 36%
    02:00 +23°C° 0 mm 7 m/s 752 mmHg 39%
    03:00 +22°C° 0 mm 7 m/s 752 mmHg 39%
    04:00 +22°C° 0 mm 6 m/s 752 mmHg 40%
    05:00 +22°C° 0 mm 6 m/s 753 mmHg 41%
    06:00 +23°C° 0 mm 6 m/s 753 mmHg 37%
    07:00 +26°C° 0 mm 7 m/s 753 mmHg 33%
    08:00 +27°C° 0 mm 7 m/s 753 mmHg 30%
    09:00 +28°C° 0 mm 6 m/s 753 mmHg 27%
    10:00 +29°C° 0 mm 5 m/s 753 mmHg 25%
    11:00 +30°C° 0 mm 4 m/s 753 mmHg 23%
    12:00 +30°C° 0 mm 5 m/s 753 mmHg 25%
    13:00 +30°C° 0 mm 5 m/s 753 mmHg 27%
    14:00 +29°C° 0 mm 5 m/s 752 mmHg 30%
    15:00 +28°C° 0 mm 5 m/s 752 mmHg 31%
    16:00 +26°C° 0 mm 5 m/s 752 mmHg 32%
    17:00 +25°C° 0 mm 5 m/s 753 mmHg 33%
    18:00 +22°C° 0 mm 3 m/s 753 mmHg 32%
    19:00 +21°C° 0 mm 2 m/s 753 mmHg 32%
    20:00 +21°C° 0 mm 1 m/s 754 mmHg 31%
    21:00 +20°C° 0 mm 1 m/s 754 mmHg 29%
    22:00 +19°C° 0 mm 2 m/s 754 mmHg 27%
    23:00 +19°C° 0 mm 2 m/s 754 mmHg 25%

    31 Mai, Vendredi

    Heure Température Précipitation Vent Pression Humidité
    00:00 +19°C° 0 mm 2 m/s 754 mmHg 25%
    01:00 +19°C° 0 mm 2 m/s 754 mmHg 25%
    02:00 +18°C° 0 mm 2 m/s 754 mmHg 24%
    03:00 +18°C° 0 mm 3 m/s 755 mmHg 26%
    04:00 +18°C° 0 mm 3 m/s 755 mmHg 28%
    05:00 +18°C° 0 mm 3 m/s 755 mmHg 29%
    06:00 +20°C° 0 mm 3 m/s 755 mmHg 29%
    07:00 +22°C° 0 mm 3 m/s 755 mmHg 29%
    08:00 +25°C° 0 mm 3 m/s 756 mmHg 29%
    09:00 +27°C° 0 mm 3 m/s 756 mmHg 25%
    10:00 +28°C° 0 mm 3 m/s 755 mmHg 21%
    11:00 +30°C° 0 mm 3 m/s 755 mmHg 17%
    12:00 +30°C° 0 mm 3 m/s 755 mmHg 17%
    13:00 +31°C° 0 mm 3 m/s 754 mmHg 17%
    14:00 +32°C° 0 mm 4 m/s 754 mmHg 17%
    15:00 +30°C° 0 mm 3 m/s 754 mmHg 17%
    16:00 +30°C° 0 mm 3 m/s 754 mmHg 17%
    17:00 +29°C° 0 mm 3 m/s 753 mmHg 17%
    18:00 +27°C° 0 mm 2 m/s 753 mmHg 21%
    19:00 +25°C° 0 mm 2 m/s 754 mmHg 24%
    20:00 +23°C° 0 mm 2 m/s 754 mmHg 27%
    21:00 +22°C° 0 mm 3 m/s 754 mmHg 30%
    22:00 +21°C° 0 mm 4 m/s 753 mmHg 32%
    23:00 +20°C° 0 mm 4 m/s 753 mmHg 34%
    Voir plus